Weather History for KCFE - March, 2013

Change the Weather History Date:

Monday, March 4, 2013

  Actual Average (KSTC) Record (KSTC)
Temperature  
Mean Temperature 25 °F 24 °F  
Max Temperature 27 °F 33 °F 59 °F (1905)
Min Temperature 23 °F 15 °F -19 °F (1917)
Degree Days  
Heating Degree Days 40 41  
Month to date heating degree days 167  
Since 1 July heating degree days 6613  
Cooling Degree Days 0 0  
Month to date cooling degree days 0  
Year to date cooling degree days 0  
Moisture  
Dew Point 19 °F    
Average Humidity 80    
Maximum Humidity 95    
Minimum Humidity 54    
Precipitation  
Precipitation 0.12 in 0.03 in 0.47 in (1920)
Month to date precipitation 0.14  
Year to date precipitation 1.38  
Snow  
Snow 0.00 in 0.40 in 9.00 in (1985)
Month to date snowfall 1.4  
Since 1 July snowfall 35.6  
Snow Depth -    
Sea Level Pressure  
Sea Level Pressure 29.96 in    
Wind  
Wind Speed 10 mph (East)    
Max Wind Speed 15 mph    
Max Gust Speed 22 mph    
Visibility 5 miles    
Events Snow    
T = Trace of Precipitation, MM = Missing Value Source: NWS Daily Summary

Daily Weather History Graph

Daily Weather History Graph

Search for Another Location

Airport or City:

Trip Planner

Search our weather history database for the weather conditions in past years. The results will help you decide how hot, cold, wet, or windy it might be!

Date:

Astronomy

Mar. 04, 2013 Rise Set
Actual Time 6:47 AM CST 6:07 PM CST
Civil Twilight 6:18 AM CST 6:36 PM CST
Nautical Twilight 5:44 AM CST 7:10 PM CST
Astronomical Twilight 5:09 AM CST 7:45 PM CST
Moon 1:09 AM CST (3/4) 10:37 AM CST (3/4)
Length of Visible Light 12h 18m
Length of Day
11h 19m
Waning Gibbous, 52% of the Moon is Illuminated
Mar 4
Waning Gibbous
Mar 4
Last Quarter
Mar 11
New
Mar 19
First Quarter
Mar 27
Full

Hourly Weather History & Observations

Time (CST) Temp. Windchill Dew Point Humidity Pressure Visibility Wind Dir Wind Speed Gust Speed Precip Events Conditions
12:15 AM 27.9 °F 20.6 °F 12.9 °F 54% 29.98 in 10.0 mi ESE 6.9 mph - N/A   Overcast
12:35 AM 27.5 °F 21.1 °F 13.3 °F 55% 29.98 in 10.0 mi East 5.8 mph - N/A   Overcast
12:54 AM 27.7 °F 19.6 °F 13.6 °F 56% 29.98 in 10.0 mi East 8.1 mph - N/A   Overcast
1:35 AM 27.3 °F 18.4 °F 14.5 °F 59% 29.97 in 10.0 mi East 9.2 mph - N/A   Overcast
1:54 AM 27.5 °F 19.3 °F 13.6 °F 56% 29.97 in 10.0 mi East 8.1 mph - N/A   Overcast
2:15 AM 27.3 °F 18.4 °F 13.5 °F 56% 29.96 in 10.0 mi ESE 9.2 mph - N/A   Overcast
2:35 AM 27.1 °F 18.2 °F 14.5 °F 59% 29.95 in 10.0 mi East 9.2 mph - N/A   Overcast
2:54 AM 27.1 °F 17.5 °F 14.5 °F 59% 29.95 in 10.0 mi East 10.4 mph - N/A   Overcast
3:15 AM 26.8 °F 17.7 °F 14.5 °F 60% 29.94 in 10.0 mi East 9.2 mph - N/A   Overcast
3:35 AM 26.6 °F 17.5 °F 14.9 °F 61% 29.94 in 10.0 mi East 9.2 mph - N/A   Overcast
3:54 AM 26.6 °F 17.5 °F 14.7 °F 61% 29.94 in 10.0 mi East 9.2 mph - N/A   Overcast
4:15 AM 26.6 °F 16.2 °F 14.4 °F 60% 29.93 in 10.0 mi East 11.5 mph - N/A   Overcast
4:35 AM 26.4 °F 15.0 °F 14.7 °F 61% 29.93 in 10.0 mi East 13.8 mph - N/A   Overcast
4:54 AM 26.1 °F 15.0 °F 15.8 °F 65% 29.93 in 5.0 mi East 12.7 mph 21.9 mph N/A Snow Light Snow
5:15 AM 25.7 °F 13.5 °F 16.7 °F 69% 29.94 in 5.0 mi East 15.0 mph 21.9 mph N/A Snow Light Snow
5:35 AM 24.3 °F 13.9 °F 19.4 °F 82% 29.94 in 1.8 mi East 10.4 mph 19.6 mph N/A Snow Light Snow
5:54 AM 23.7 °F 12.6 °F 20.8 °F 89% 29.95 in 1.2 mi East 11.5 mph 17.3 mph N/A Snow Snow
6:15 AM 23.0 °F 12.4 °F 21.2 °F 93% 29.95 in 1.0 mi ESE 10.4 mph - N/A Snow Snow
6:35 AM 23.0 °F 10.6 °F 21.0 °F 92% 29.94 in 1.0 mi East 13.8 mph 17.3 mph N/A Snow Snow
6:54 AM 23.0 °F 10.6 °F 21.0 °F 92% 29.94 in 1.5 mi East 13.8 mph - 0.01 in Snow Light Snow
7:15 AM 23.0 °F 11.1 °F 21.0 °F 92% 29.94 in 0.8 mi East 12.7 mph - N/A Snow Light Snow
7:35 AM 23.2 °F 11.4 °F 21.2 °F 92% 29.95 in 0.8 mi East 12.7 mph - N/A Snow Light Snow
7:54 AM 23.4 °F 12.2 °F 21.4 °F 92% 29.96 in 1.2 mi East 11.5 mph - 0.01 in Snow Light Snow
8:14 AM 23.5 °F 12.4 °F 21.6 °F 92% 29.95 in 0.8 mi East 11.5 mph 17.3 mph N/A Snow Light Snow
8:35 AM 23.5 °F 11.8 °F 21.7 °F 93% 29.96 in 0.5 mi East 12.7 mph - N/A Snow Light Snow
8:54 AM 23.7 °F 12.6 °F 21.7 °F 92% 29.95 in 0.8 mi East 11.5 mph 17.3 mph 0.01 in Snow Light Snow
9:14 AM 23.9 °F 11.7 °F 21.4 °F 90% 29.94 in 1.8 mi East 13.8 mph 21.9 mph N/A Snow Light Snow
9:35 AM 24.1 °F 13.1 °F 21.2 °F 89% 29.95 in 2.5 mi East 11.5 mph - N/A Snow Light Snow
9:54 AM 23.9 °F 12.9 °F 21.2 °F 89% 29.95 in 1.8 mi East 11.5 mph - N/A Snow Light Snow
10:14 AM 23.9 °F 12.3 °F 21.2 °F 89% 29.95 in 1.8 mi East 12.7 mph 18.4 mph N/A Snow Light Snow
10:35 AM 23.9 °F 12.3 °F 21.0 °F 89% 29.95 in 2.0 mi East 12.7 mph - 0.01 in Snow Light Snow
10:54 AM 24.3 °F 12.7 °F 20.8 °F 87% 29.95 in 1.2 mi East 12.7 mph 18.4 mph 0.01 in Snow Light Snow
11:14 AM 24.1 °F 11.5 °F 20.3 °F 85% 29.95 in 3.0 mi East 15.0 mph - N/A Snow Light Snow
11:34 AM 24.8 °F 13.4 °F 20.8 °F 85% 29.95 in 3.0 mi East 12.7 mph 17.3 mph N/A Snow Light Snow
11:54 AM 24.8 °F 12.4 °F 20.3 °F 83% 29.94 in 3.0 mi East 15.0 mph 19.6 mph N/A Snow Light Snow
12:15 PM 24.6 °F 13.2 °F 19.6 °F 81% 29.94 in 10.0 mi East 12.7 mph - N/A   Overcast
12:55 PM 25.3 °F 14.7 °F 18.5 °F 75% 29.94 in 10.0 mi East 11.5 mph - N/A   Overcast
1:15 PM 25.5 °F 15.5 °F 18.3 °F 74% 29.94 in 10.0 mi East 10.4 mph - N/A   Overcast
1:34 PM 25.9 °F 16.0 °F 18.7 °F 74% 29.94 in 10.0 mi East 10.4 mph - N/A   Overcast
1:55 PM 25.7 °F 16.4 °F 18.5 °F 74% 29.95 in 10.0 mi East 9.2 mph - N/A   Overcast
2:15 PM 25.7 °F 16.4 °F 19.0 °F 76% 29.94 in 10.0 mi East 9.2 mph - N/A   Overcast
2:34 PM 25.7 °F 16.4 °F 19.4 °F 77% 29.94 in 10.0 mi East 9.2 mph - N/A   Overcast
2:55 PM 25.7 °F 15.7 °F 19.2 °F 76% 29.95 in 10.0 mi East 10.4 mph - N/A   Overcast
3:34 PM 25.7 °F 15.7 °F 19.0 °F 76% 29.95 in 10.0 mi East 10.4 mph - N/A   Overcast
3:54 PM 25.5 °F 14.3 °F 17.8 °F 72% 29.95 in 10.0 mi East 12.7 mph - N/A   Overcast
4:14 PM 25.3 °F 14.7 °F 17.4 °F 72% 29.96 in 10.0 mi East 11.5 mph - N/A   Overcast
4:35 PM 25.3 °F 15.3 °F 17.6 °F 72% 29.96 in 10.0 mi East 10.4 mph - N/A   Overcast
4:55 PM 25.2 °F 15.7 °F 17.6 °F 73% 29.96 in 10.0 mi East 9.2 mph - N/A   Overcast
5:14 PM 24.8 °F 14.0 °F 17.8 °F 75% 29.96 in 10.0 mi East 11.5 mph - N/A   Overcast
5:35 PM 24.6 °F 13.8 °F 18.9 °F 79% 29.96 in 10.0 mi East 11.5 mph 17.3 mph N/A   Overcast
5:54 PM 24.6 °F 15.8 °F 19.4 °F 81% 29.97 in 4.0 mi East 8.1 mph - N/A Snow Light Snow
6:14 PM 24.6 °F 15.1 °F 20.1 °F 83% 29.97 in 4.0 mi East 9.2 mph - N/A Snow Light Snow
6:35 PM 24.1 °F 16.0 °F 20.7 °F 87% 29.98 in 2.0 mi ENE 6.9 mph - 0.01 in Snow Light Snow
6:55 PM 23.7 °F 14.7 °F 21.2 °F 90% 29.98 in 1.5 mi East 8.1 mph - 0.01 in Snow Light Snow
7:14 PM 23.7 °F 16.6 °F 21.4 °F 91% 29.99 in 2.0 mi East 5.8 mph - N/A Snow Light Snow
7:35 PM 23.7 °F 17.8 °F 21.9 °F 93% 30.00 in 1.8 mi East 4.6 mph - N/A Snow Light Snow
7:55 PM 23.7 °F 16.6 °F 22.1 °F 94% 30.01 in 2.0 mi East 5.8 mph - N/A Snow Light Snow
8:35 PM 23.5 °F 17.6 °F 22.1 °F 94% 30.02 in 1.2 mi East 4.6 mph - N/A Snow Light Snow
8:55 PM 23.5 °F 16.4 °F 22.1 °F 94% 30.02 in 1.0 mi ENE 5.8 mph - N/A Snow Light Snow
9:14 PM 23.4 °F 16.2 °F 22.1 °F 95% 30.01 in 4.0 mi East 5.8 mph - N/A Snow Light Snow
9:35 PM 23.4 °F 15.2 °F 22.1 °F 95% 30.01 in 3.0 mi East 6.9 mph - 0.01 in Snow Light Snow
9:55 PM 23.7 °F 14.7 °F 22.1 °F 94% 30.01 in 1.8 mi East 8.1 mph - 0.02 in Snow Light Snow
10:14 PM 23.7 °F 15.6 °F 22.5 °F 95% 30.01 in 1.0 mi East 6.9 mph - N/A Snow Snow
10:35 PM 23.7 °F 16.6 °F 22.5 °F 95% 30.01 in 1.5 mi East 5.8 mph - 0.02 in Snow Light Snow
10:55 PM 23.7 °F 16.6 °F 22.1 °F 94% 30.01 in 1.8 mi East 5.8 mph - 0.02 in Snow Light Snow
11:14 PM 23.7 °F 16.6 °F 22.3 °F 94% 30.00 in 1.8 mi East 5.8 mph - 0.01 in Snow Light Snow
11:35 PM 23.7 °F 15.6 °F 22.5 °F 95% 29.99 in 1.0 mi East 6.9 mph - 0.01 in Snow Light Snow
11:55 PM 23.7 °F 16.6 °F 22.5 °F 95% 29.99 in 2.0 mi East 5.8 mph - 0.03 in Snow Light Snow